Location: Riddle Hill
(39.7867°N, 89.7645°W)
Time: 21:57:29
(UTC+00:00)

CZ-2D R/B - Pass Details

Date: 29 October 2020
Orbit: 522 x 537 km, 97.4° (Epoch: 30 November)

Event Time Altitude Azimuth Distance (km) Brightness Sun altitude
Rises 23:40:30 0° 141° (SE) 2,649 6.5 -8.4°
Reaches altitude 10° 23:42:49 10° 128° (SE) 1,762 5.5 -8.8°
Maximum altitude 23:46:01 26° 71° (ENE) 1,048 4.2 -9.4°
Drops below altitude 10° 23:49:14 10° 13° (NNE) 1,768 5.7 -10.0°
Sets 23:51:34 0° 1° (N) 2,660 6.7 -10.5°
